• In Hungary
  • List of Countries
  • For 7 days
  • Water Temperature
  • Satellite Maps
  • Weather Map
  • News
  • Weather Widgets
  • user-avatar
    Login

    Hourly Weather Kyzylbulak

    Today, 21 August, Tuesday

    Time Temperature Precipitation Wind Pressure Humidity
    00:00 +18°C° 0 mm 1 mps 751 mmHg 54%
    01:00 +16°C° 0 mm 1 mps 751 mmHg 56%
    02:00 +16°C° 0 mm 1 mps 751 mmHg 57%
    03:00 +16°C° 0 mm 1 mps 751 mmHg 58%
    04:00 +16°C° 0 mm 2 mps 751 mmHg 54%
    05:00 +16°C° 0 mm 2 mps 752 mmHg 52%
    06:00 +17°C° 0 mm 2 mps 752 mmHg 50%
    07:00 +18°C° 0 mm 2 mps 752 mmHg 49%
    08:00 +20°C° 0 mm 2 mps 752 mmHg 45%
    09:00 +22°C° 0 mm 3 mps 752 mmHg 41%
    10:00 +25°C° 0 mm 4 mps 751 mmHg 37%
    11:00 +26°C° 0 mm 4 mps 751 mmHg 35%
    12:00 +28°C° 0 mm 5 mps 751 mmHg 34%
    13:00 +29°C° 0 mm 5 mps 751 mmHg 33%
    14:00 +29°C° 0 mm 5 mps 751 mmHg 33%
    15:00 +29°C° 0 mm 5 mps 750 mmHg 33%
    16:00 +29°C° 0 mm 5 mps 750 mmHg 34%
    17:00 +28°C° 0 mm 5 mps 750 mmHg 36%
    18:00 +28°C° 0 mm 4 mps 750 mmHg 39%
    19:00 +27°C° 0 mm 3 mps 750 mmHg 42%
    20:00 +26°C° 0 mm 3 mps 750 mmHg 43%
    21:00 +25°C° 0 mm 3 mps 749 mmHg 44%
    22:00 +24°C° 0 mm 3 mps 749 mmHg 45%
    23:00 +24°C° 0 mm 3 mps 749 mmHg 45%

    Tomorrow, 22 August, Wednesday

    Time Temperature Precipitation Wind Pressure Humidity
    00:00 +22°C° 0 mm 3 mps 749 mmHg 45%
    01:00 +22°C° 0 mm 3 mps 749 mmHg 45%
    02:00 +21°C° 0 mm 3 mps 749 mmHg 45%
    03:00 +21°C° 0 mm 3 mps 749 mmHg 46%
    04:00 +20°C° 0 mm 3 mps 749 mmHg 46%
    05:00 +21°C° 0 mm 3 mps 749 mmHg 45%
    06:00 +21°C° 0 mm 3 mps 749 mmHg 44%
    07:00 +21°C° 0 mm 3 mps 749 mmHg 44%
    08:00 +25°C° 0 mm 4 mps 749 mmHg 39%
    09:00 +27°C° 0 mm 4 mps 749 mmHg 34%
    10:00 +29°C° 0 mm 5 mps 749 mmHg 29%
    11:00 +30°C° 0 mm 6 mps 749 mmHg 26%
    12:00 +32°C° 0 mm 6 mps 749 mmHg 23%
    13:00 +32°C° 0 mm 7 mps 748 mmHg 20%
    14:00 +32°C° 0 mm 7 mps 748 mmHg 20%
    15:00 +32°C° 0 mm 7 mps 748 mmHg 21%
    16:00 +32°C° 0 mm 7 mps 747 mmHg 21%
    17:00 +30°C° 0 mm 6 mps 747 mmHg 23%
    18:00 +29°C° 0 mm 5 mps 747 mmHg 25%
    19:00 +28°C° 0 mm 4 mps 746 mmHg 28%
    20:00 +27°C° 0 mm 4 mps 746 mmHg 27%
    21:00 +26°C° 0 mm 4 mps 746 mmHg 26%
    22:00 +25°C° 0 mm 4 mps 746 mmHg 25%
    23:00 +23°C° 0 mm 4 mps 746 mmHg 29%

    Day after tomorrow, 23 August, Thursday

    Time Temperature Precipitation Wind Pressure Humidity
    00:00 +22°C° 0 mm 4 mps 746 mmHg 34%
    01:00 +22°C° 0 mm 4 mps 746 mmHg 38%
    02:00 +21°C° 0.3 mm 4 mps 746 mmHg 48%
    03:00 +19°C° 0.3 mm 3 mps 746 mmHg 58%
    04:00 +18°C° 0.3 mm 3 mps 746 mmHg 68%
    05:00 +18°C° 0.6 mm 3 mps 746 mmHg 71%
    06:00 +18°C° 0.6 mm 4 mps 746 mmHg 73%
    07:00 +17°C° 0.6 mm 5 mps 746 mmHg 76%
    08:00 +19°C° 0 mm 5 mps 747 mmHg 67%
    09:00 +20°C° 0 mm 6 mps 747 mmHg 58%
    10:00 +21°C° 0 mm 6 mps 747 mmHg 49%
    11:00 +21°C° 0 mm 6 mps 747 mmHg 46%
    12:00 +22°C° 0 mm 6 mps 748 mmHg 43%
    13:00 +23°C° 0 mm 6 mps 748 mmHg 41%
    14:00 +23°C° 0 mm 6 mps 748 mmHg 41%
    15:00 +23°C° 0 mm 7 mps 748 mmHg 41%
    16:00 +22°C° 0 mm 7 mps 748 mmHg 41%
    17:00 +22°C° 0 mm 7 mps 749 mmHg 43%
    18:00 +21°C° 0 mm 6 mps 749 mmHg 45%
    19:00 +20°C° 0 mm 6 mps 749 mmHg 47%
    20:00 +19°C° 0 mm 5 mps 750 mmHg 50%
    21:00 +17°C° 0 mm 5 mps 750 mmHg 54%
    22:00 +16°C° 0 mm 5 mps 751 mmHg 58%
    23:00 +15°C° 0 mm 5 mps 751 mmHg 60%

    24 August, Friday

    Time Temperature Precipitation Wind Pressure Humidity
    00:00 +14°C° 0 mm 4 mps 751 mmHg 63%
    01:00 +13°C° 0 mm 4 mps 751 mmHg 66%
    02:00 +12°C° 0 mm 4 mps 752 mmHg 68%
    03:00 +12°C° 0 mm 4 mps 752 mmHg 69%
    04:00 +11°C° 0 mm 4 mps 752 mmHg 70%
    05:00 +12°C° 0 mm 4 mps 752 mmHg 69%
    06:00 +12°C° 0 mm 5 mps 752 mmHg 67%
    07:00 +12°C° 0 mm 5 mps 752 mmHg 66%
    08:00 +14°C° 0 mm 6 mps 752 mmHg 58%
    09:00 +15°C° 0 mm 6 mps 752 mmHg 51%
    10:00 +17°C° 0 mm 7 mps 752 mmHg 44%
    11:00 +18°C° 0 mm 7 mps 751 mmHg 42%
    12:00 +18°C° 0 mm 7 mps 751 mmHg 40%
    13:00 +20°C° 0 mm 8 mps 751 mmHg 37%
    14:00 +20°C° 0 mm 8 mps 751 mmHg 39%
    15:00 +20°C° 0 mm 8 mps 751 mmHg 41%
    16:00 +20°C° 0 mm 8 mps 751 mmHg 42%
    17:00 +18°C° 0 mm 7 mps 750 mmHg 47%
    18:00 +17°C° 0 mm 6 mps 750 mmHg 53%
    19:00 +16°C° 0 mm 6 mps 750 mmHg 58%
    20:00 +15°C° 0 mm 5 mps 750 mmHg 63%
    21:00 +14°C° 0 mm 5 mps 750 mmHg 68%
    22:00 +13°C° 0 mm 4 mps 751 mmHg 73%
    23:00 +13°C° 0 mm 4 mps 751 mmHg 76%

    25 August, Saturday

    Time Temperature Precipitation Wind Pressure Humidity
    00:00 +12°C° 0 mm 4 mps 750 mmHg 79%
    01:00 +12°C° 0 mm 4 mps 750 mmHg 81%
    02:00 +12°C° 0 mm 4 mps 750 mmHg 82%
    03:00 +12°C° 0 mm 4 mps 750 mmHg 83%
    04:00 +11°C° 0 mm 4 mps 750 mmHg 83%
    05:00 +12°C° 0 mm 5 mps 750 mmHg 80%
    06:00 +13°C° 0 mm 5 mps 751 mmHg 77%
    07:00 +13°C° 0 mm 6 mps 751 mmHg 74%
    08:00 +15°C° 0 mm 6 mps 751 mmHg 69%
    09:00 +16°C° 0 mm 6 mps 751 mmHg 63%
    10:00 +18°C° 0 mm 7 mps 751 mmHg 57%
    11:00 +20°C° 0 mm 7 mps 751 mmHg 54%
    12:00 +22°C° 0 mm 7 mps 751 mmHg 50%
    13:00 +23°C° 0 mm 7 mps 751 mmHg 47%
    14:00 +23°C° 0 mm 7 mps 751 mmHg 47%
    15:00 +23°C° 0 mm 7 mps 751 mmHg 47%
    16:00 +24°C° 0 mm 7 mps 751 mmHg 46%
    17:00 +23°C° 0 mm 6 mps 751 mmHg 50%
    18:00 +22°C° 0 mm 5 mps 751 mmHg 54%
    19:00 +21°C° 0 mm 4 mps 751 mmHg 58%
    20:00 +20°C° 0 mm 4 mps 751 mmHg 63%
    21:00 +19°C° 0 mm 4 mps 751 mmHg 68%
    22:00 +18°C° 0 mm 3 mps 752 mmHg 73%
    23:00 +17°C° 0 mm 3 mps 752 mmHg 77%

    26 August, Sunday

    Time Temperature Precipitation Wind Pressure Humidity
    00:00 +16°C° 0 mm 3 mps 752 mmHg 80%
    01:00 +16°C° 0 mm 3 mps 752 mmHg 84%
    02:00 +14°C° 0 mm 3 mps 752 mmHg 86%
    03:00 +14°C° 0 mm 3 mps 752 mmHg 88%
    04:00 +13°C° 0 mm 3 mps 752 mmHg 91%
    05:00 +14°C° 0 mm 3 mps 752 mmHg 89%
    06:00 +14°C° 0 mm 4 mps 752 mmHg 87%
    07:00 +14°C° 0 mm 4 mps 752 mmHg 85%
    08:00 +18°C° 0 mm 4 mps 752 mmHg 76%
    09:00 +20°C° 0 mm 5 mps 752 mmHg 66%
    10:00 +22°C° 0 mm 5 mps 752 mmHg 57%
    11:00 +23°C° 0 mm 5 mps 752 mmHg 52%
    12:00 +25°C° 0 mm 5 mps 752 mmHg 47%
    13:00 +27°C° 0 mm 6 mps 751 mmHg 43%
    14:00 +27°C° 0 mm 6 mps 751 mmHg 42%
    15:00 +27°C° 0 mm 6 mps 751 mmHg 42%
    16:00 +27°C° 0 mm 6 mps 750 mmHg 41%
    17:00 +26°C° 0 mm 6 mps 750 mmHg 45%
    18:00 +23°C° 0 mm 5 mps 750 mmHg 49%
    19:00 +22°C° 0 mm 4 mps 750 mmHg 52%
    20:00 +21°C° 0 mm 4 mps 751 mmHg 58%
    21:00 +20°C° 0 mm 4 mps 751 mmHg 63%
    22:00 +19°C° 0 mm 4 mps 751 mmHg 68%
    23:00 +18°C° 0 mm 4 mps 751 mmHg 70%
    Show more